User: anonymous   Login
Location: Dugenta
(41.1333°N, 14.4500°E)
Time: 14:15:17
(UTC+00:00)
Language:

Cosmos 2333 Rocket - Orbit

View from above orbital plane
View from above orbital plane
View from above satellite
View from above satellite

Ground track
Ground track

The orbit data is extracted from the following two-line orbital elements,

1 24298U 96051B   21128.92385031 -.00000191  00000-0 -76875-4 0  9991
2 24298  70.8292 304.3173 0018195 233.1876 126.7576 14.12448829272312
Epoch (UTC): 08 May 2021 22:10:20
Eccentricity: 0.0018195
inclination: 70.8292°
perigee height: 838 km
apogee height: 864 km
right ascension of ascending node: 304.3173°
argument of perigee: 233.1876°
revolutions per day: 14.12448829
mean anomaly at epoch: 126.7576°
orbit number at epoch: 27231

The dashed part of the orbit path shows where the satellite is in the earth's shadow,  

DLR